Flag for Germany Weather past 2 weeks in Ettlingen, Baden-Württemberg, Germany

Now
50 °F

Passing clouds.


Feels Like: 46 °F
Forecast: 34 / 62 °F
Wind: 10 mph from Northeast

Location: Karlsruhe - Baden Wurttemberg


UV Index: 3 (Moderate)

Visibility: N/A


Pressure: 30.36 "Hg

Humidity: 50%

Dew point: 32 °F

Location of EttlingenLocation

Historic Weather in Ettlingen

°F

Ettlingen temperature yesterday

Maximum temperature yesterday: 52 °F (at 5:20 PM)
Minimum temperature yesterday: 37 °F (at 4:50 AM)
Average temperature yesterday: 46 °F

Past Weeks' High & Low Weather Summary

 TemperatureHumidityPressure
High75 °F (Apr 3, 3:50 PM)94% (Apr 5, 10:50 PM)30.36 "Hg (Apr 5, 10:50 PM)
Low34 °F (Apr 16, 5:20 AM)26% (Apr 13, 4:20 PM)29.62 "Hg (Apr 3, 2:20 PM)
Average56 °F58%30.01 "Hg
* Reported Apr 1 10:20 AM — Apr 16 10:20 AM, Ettlingen, Weather by CustomWeather, © 2014

Note: Actual official high and low records may vary slightly from our data, if they occured in-between our weather recording intervals... More about our weather records

Advertising

Historic Weather Conditions — Data for Previous 24 hours

 ConditionsComfort  
Time TempWeatherWind HumidityBarometerVisibility
10:20 AM
Apr 16
48 °FSunny.9 mph54%30.36 "Hg10 mi
9:50 AM46 °FSunny.12 mph57%30.36 "Hg10 mi
9:20 AM45 °FSunny.12 mph61%30.36 "Hg10 mi
8:50 AM43 °FSunny.9 mph66%30.36 "Hg10 mi
8:20 AM39 °FSunny.6 mph75%30.36 "Hg10 mi
7:50 AM36 °FPassing clouds.5 mph81%30.36 "HgN/A
7:20 AM34 °FClear.3 mph87%30.36 "Hg10 mi
6:50 AM36 °FPassing clouds.5 mph81%30.36 "HgN/A
6:20 AM36 °FClear.6 mph87%30.33 "Hg10 mi
5:50 AM34 °FClear.3 mph87%30.33 "Hg10 mi
5:20 AM34 °FClear.3 mph81%30.33 "Hg10 mi
4:50 AM36 °FClear.2 mph81%30.33 "Hg10 mi
4:20 AM36 °FClear.2 mph81%30.33 "Hg10 mi
3:50 AM37 °FClear.3 mph81%30.33 "Hg10 mi
2:50 AM37 °FPartly cloudy.2 mph75%30.33 "HgN/A
2:20 AM37 °FClear.1 mph70%30.33 "Hg10 mi
12:50 AM39 °FClear.1 mph65%30.33 "Hg10 mi
11:20 PM
Apr 15
43 °FClear.No wind53%30.30 "Hg10 mi
10:50 PM45 °FClear.3 mph49%30.30 "Hg10 mi
10:20 PM45 °FClear.2 mph46%30.30 "Hg10 mi
9:50 PM45 °FClear.5 mph46%30.30 "Hg10 mi
9:20 PM46 °FClear.7 mph40%30.30 "Hg10 mi
8:50 PM46 °FSunny.9 mph43%30.30 "Hg10 mi
8:20 PM48 °FSunny.7 mph40%30.30 "Hg10 mi
7:50 PM48 °FPassing clouds.6 mph43%30.27 "HgN/A
7:20 PM48 °FPassing clouds.6 mph40%30.27 "HgN/A
6:50 PM48 °FPassing clouds.9 mph40%30.27 "HgN/A
6:20 PM50 °FPassing clouds.6 mph35%30.27 "HgN/A
5:50 PM50 °FSunny.8 mph35%30.27 "Hg10 mi
5:20 PM52 °FPassing clouds.7 mph35%30.27 "HgN/A
4:50 PM50 °FPassing clouds.6 mph35%30.27 "HgN/A
4:20 PM48 °FPassing clouds.7 mph40%30.27 "HgN/A
3:50 PM48 °FSunny.8 mph40%30.30 "Hg10 mi
3:20 PM50 °FPassing clouds.6 mph37%30.30 "HgN/A
2:50 PM50 °FScattered clouds.6 mph35%30.30 "HgN/A
2:20 PM46 °FPartly sunny.5 mph46%30.30 "HgN/A
1:50 PM48 °FBroken clouds.6 mph40%30.30 "HgN/A
1:20 PM48 °FScattered clouds.10 mph43%30.30 "HgN/A
12:50 PM48 °FPartly sunny.9 mph40%30.30 "HgN/A
12:20 PM48 °FScattered clouds.8 mph40%30.30 "HgN/A
11:50 AM46 °FScattered clouds.10 mph46%30.30 "HgN/A
11:20 AM46 °FScattered clouds.9 mph43%30.30 "HgN/A
Weather by CustomWeather, © 2014

See weather overview